Hourly Data Report for May 01, 2004

SHERBROOKE A
QUEBEC

45°26'00.000" N
71°41'00.000" W
241.40 m
7028124
71610
YSC

Download Data

Hourly Data (May 2004)
Hourly Data Report for May 1, 2004
TIME
LST
Temp Definition
°C
Dew Point Definition
°C
Rel Hum Definition
%
Precip. Amount Definition
mm

Wind Dir Definition
10's deg

Wind Spd Definition
km/h
Visibility Definition
km
Stn Press Definition
kPa
Hmdx Definition


Wind Chill Definition


Weather Definition


00:00 11.8 8.5 80   12 4 15.0 98.83      
01:00 10.7 8.3 85     0 15.0 98.83      
02:00 11.3 8.8 85     0 15.0 98.81      
03:00 10.9 8.5 85     0 15.0 98.78      
04:00 10.2 7.9 86   10 6 15.0 98.74      
05:00 12.1 7.9 75   9 6 15.0 98.73      
06:00 13.5 8.6 72     0 15.0 98.76      
07:00 15.1 9.4 69     0 24.1 98.75     Mostly Cloudy
08:00 18.8 10.3 58     0 24.1 98.74     Mostly Cloudy
09:00 23.0 10.6 45   18 15 24.1 98.67 25   Mostly Cloudy
10:00 25.1 10.1 39   19 20 24.1 98.58 26   Mainly Clear
11:00 26.5 9.8 35   23 17 24.1 98.52 28   Mainly Clear
12:00 26.9 9.6 34   25 22 24.1 98.49 28   Mainly Clear
13:00 27.1 9.7 34   23 22 24.1 98.45 28   Mostly Cloudy
14:00 26.4 10.1 36   22 13 24.1 98.41 28   Mostly Cloudy
15:00 27.1 10.7 36   23 11 24.1 98.35 29   Mostly Cloudy
16:00 26.7 11.0 37   23 17 24.1 98.34 28   Mostly Cloudy
17:00 26.1 11.4 40   23 13 15.0 98.34 28    
18:00 25.0 11.6 43   22 6 15.0 98.33 27    
19:00 22.6 11.6 50   23 4 15.0 98.36 25    
20:00 21.7 12.5 56   27 20 15.0 98.48      
21:00 19.5 13.6 69   22 6 15.0 98.52      
22:00 18.6 13.8 74   18 4 15.0 98.50      
23:00 16.9 14.7 87   17 6 5.6 98.54     Rain

Notes on Data Quality.

Legend

  • E = Estimated
  • M = Missing
  • NA = Not Available*
  • [empty] = Indicates an unobserved value
Date modified: